ONEWEB-0029, 45445

Orbit data source: Space-Track

ONEWEB-0029, 45445 is a payload satellite owned by One Web (UK) in LEO that was launched on Sat, 21 Mar 2020 UTC via a SOYUZ-2-1B launch vehicle from the Tyuratam Missile And Space Complex (TTMTR). Payload-class satellites include a variety of spacecraft equipped with specific instruments for various scientific and technological missions. These include communications satellites like Starlink; space stations such as the ISS; scientific satellites like the Hubble; Earth observation satellites from companies like Planet Labs, Umbra, and HawkEye 360; GPS; miniature CubeSats for education and research; and military/defense satellites.

Loading next visibility...
Identifier
45445, 2020-020X
Orbit
LEO
Country
Flag of UKUK
Related business
Manufacturer
One Web
Mission
Operational Commercial Communications
Bus & Motor
ARROW, Unknown motor
Mass
148 kg wet, ~140 kg dry
Launch date (UTC)
2020-03-21 (5 years ago)
Launch vehicle
SOYUZ-2-1B
Launch site
Tyuratam Missile And Space Complex (TTMTR)
Object type
Payload
Rocket body
Debris
Shape & HBR
Trap Box + 2 Pan, 2.5 m
Radar Cross Section
2.957 m², Large (>1 m²)

Expand to show TLE details & history
Last TLE update: 1 day ago

TLE from 1 day ago
0 ONEWEB-0029
1 45445U 20020X   25260.02714837  .00000430  00000-0  11767-2 0  9994
2 45445  87.8784  75.4764 0001654  85.4321 274.6996 13.11416394266851
Epoch: 2025-09-17T00:39Z
TLE epoch observation values (Epoch: 2025-09-17T00:39:05.619Z)
Latitude
0.00001°
Longitude
69.49399°
Altitude
1,220.471 km
Speed
7.244 km/s
True Right ascension
05h 01m 54s
True Declination
0° 00' 00"
Sunlit
Object was in daylight at epoch
Visualization orbit readout
Latitude
Unknown
Longitude
Unknown
Altitude
Unknown
Speed
Unknown
Apparent Right ascension
Unknown
Apparent Declination
Unknown
Sunlit
N/A
Visualization observer readout
Local Sidereal Time
18:04:52
Azimuth
Unknown
Elevation
Unknown
Doppler factor
Unknown
Orbital elements
Apogee altitude
1,216.059 km
Perigee altitude
1,213.547 km
Semi-major axis
7,592.94 km
Eccentricity
0.00017
Inclination
87.8784°
RAAN
75.4764°
Arg. of periapsis
85.4321°
True anomaly
274.68071°
Mean anomaly
274.6996°
Eccentric anomaly
274.69016°
Mean motion
3.28041 °/min
Orbital period
109.74 mins
BSTAR
0.0011767
Loading maneuver chart data...
Computing Atmospheric mass density...
Loading historical data...
Loading historical data...
Loading historical data...
Loading historical data...
Loading historical data...
Loading historical data...
Loading historical data...

Documentation

Showing up to 5 results
|